Location: Anaheim
(33.8350°N, 117.9140°W)
Time: 10:02:22
(UTC-07:00)

Amateur Radio Satellites - All Passes

Search period start: 25 September 2017 09:32
Search period end: 26 September 2017 09:32
Location: Anaheim, 33.8350°N, 117.9140°W

Satellite Date Start Highest point End Downlink Frequencies (MHz)
Time Altitude Azimuth
HO-68 25 Sep 09:37:16 09:42:42 24° 298° (WNW) 09:48:09 435.675
UNISAT 6 25 Sep 09:46:34 09:50:46 54° 75° (ENE) 09:55:06 437.425
CUBEBUG 2 25 Sep 09:57:10 09:57:46 10° 295° (WNW) 09:58:22 437.445
UWE-3 25 Sep 09:57:55 10:00:47 16° 292° (WNW) 10:03:38 435.000/436.395/437.385
DELFI C3 25 Sep 10:01:10 10:04:49 37° 99° (E) 10:08:26 145.870
EO-88 25 Sep 10:03:37 10:06:19 19° 96° (E) 10:08:59 145.990 - 145.960
PRISM 25 Sep 10:08:52 10:12:50 50° 74° (ENE) 10:16:47 437.425
TIGRISAT 25 Sep 10:09:35 10:13:53 86° 254° (WSW) 10:18:20 435.000
Oscar 11 25 Sep 10:33:42 10:36:33 17° 291° (WNW) 10:39:24 .
FO-29 25 Sep 10:36:32 10:40:08 17° 265° (W) 10:43:34 435.910
YUBILEINY 25 Sep 10:36:56 10:40:07 12° 78° (ENE) 10:43:17 435.215
AO-73 25 Sep 10:38:00 10:39:47 12° 294° (WNW) 10:41:33 145.935
Max Valier Satellite 25 Sep 10:40:05 10:43:51 85° 282° (WNW) 10:47:33 145.860
NANOSAT C BR1 25 Sep 11:05:14 11:07:25 14° 67° (ENE) 11:09:38 145.865
AIST 2D 25 Sep 11:08:53 11:12:17 45° 76° (ENE) 11:15:42 435.315
ESTCUBE 1 25 Sep 11:23:30 11:26:28 17° 94° (E) 11:29:24 437.505/2401.250
DUCHIFAT 1 25 Sep 11:31:10 11:34:33 25° 71° (ENE) 11:37:59 145.980
RS-15 25 Sep 11:31:31 11:37:58 15° 21° (NNE) 11:44:17 29.354- 29.394
M-CUBED/EXP-1 PRIME 25 Sep 11:35:41 11:37:53 14° 65° (ENE) 11:40:00 437.505
EO-88 25 Sep 11:37:09 11:39:49 19° 289° (WNW) 11:42:29 145.990 - 145.960
DELFI C3 25 Sep 11:37:31 11:39:11 12° 292° (WNW) 11:40:50 145.870
NO-84 25 Sep 11:37:40 11:41:33 43° 128° (SE) 11:45:11 435.350 FM
POLYITAN 1 25 Sep 11:47:15 11:51:19 52° 75° (ENE) 11:55:26 437.675
EO-79 25 Sep 11:50:55 11:55:01 58° 76° (ENE) 11:59:10 145.935-145.965
O/OREOS (USA 219) 25 Sep 11:56:02 12:00:24 42° 67° (ENE) 12:04:45 437.305
BUGSAT 1 25 Sep 12:00:13 12:01:54 12° 67° (ENE) 12:03:37 437.445
QB50P2 25 Sep 12:05:11 12:09:23 82° 258° (WSW) 12:13:38 145.880/145.840
SO-50 25 Sep 12:16:24 12:18:02 12° 108° (ESE) 12:19:41 436.795
LO-87 25 Sep 12:26:06 12:29:29 39° 285° (WNW) 12:32:52 145.935 - 145.965
YUBILEINY 25 Sep 12:26:46 12:35:29 84° 94° (E) 12:44:12 435.215
NANOSAT C BR1 25 Sep 12:38:51 12:42:44 38° 261° (W) 12:46:41 145.865
ESTCUBE 1 25 Sep 12:59:15 13:03:18 34° 288° (WNW) 13:07:20 437.505/2401.250
SPROUT 25 Sep 13:01:54 13:06:08 56° 100° (E) 13:10:21 437.525
DUCHIFAT 1 25 Sep 13:06:58 13:10:08 21° 264° (W) 13:13:19 145.980
M-CUBED/EXP-1 PRIME 25 Sep 13:07:52 13:11:59 42° 255° (WSW) 13:15:51 437.505
Oscar 19 25 Sep 13:13:28 13:18:25 47° 72° (ENE) 13:23:22 437.125/150
Gurwin Techsat 1B 25 Sep 13:15:31 13:20:10 32° 70° (ENE) 13:24:51 435.225
NO-84 25 Sep 13:16:13 13:19:04 19° 321° (NW) 13:21:46 435.350 FM
VELOX 1 25 Sep 13:18:36 13:22:57 61° 101° (E) 13:27:17 145.980
50 SAT 25 Sep 13:25:39 13:27:57 17° 96° (E) 13:30:14 437.505
BUGSAT 1 25 Sep 13:33:04 13:36:50 40° 261° (W) 13:40:40 437.445
O/OREOS (USA 219) 25 Sep 13:36:52 13:39:23 15° 261° (W) 13:41:53 437.305
AO-7 25 Sep 13:40:52 13:45:25 16° 54° (NE) 13:49:56 .
PCSat 25 Sep 13:42:14 13:47:17 41° 110° (ESE) 13:52:20 145.827
RS-15 25 Sep 13:43:16 13:54:41 47° 51° (NE) 14:05:26 29.354- 29.394
SO-50 25 Sep 13:53:34 13:57:58 55° 301° (WNW) 14:02:23 436.795
UKube-1 25 Sep 14:09:29 14:13:23 33° 98° (E) 14:17:16 .
DX 1 25 Sep 14:20:34 14:24:55 77° 102° (ESE) 14:29:15 434.975-435.025
ITAMSAT 1 25 Sep 14:25:51 14:28:17 13° 64° (ENE) 14:30:43 435.822/435.867
YUBILEINY 25 Sep 14:28:08 14:33:15 17° 293° (WNW) 14:38:24 435.215
SPROUT 25 Sep 14:40:39 14:41:29 10° 294° (WNW) 14:42:19 437.525
Oscar 19 25 Sep 14:54:35 14:57:53 17° 266° (W) 15:01:13 437.125/150
Gurwin Techsat 1B 25 Sep 14:55:43 15:00:05 26° 264° (W) 15:04:27 435.225
50 SAT 25 Sep 14:58:03 15:00:17 17° 289° (WNW) 15:02:29 437.505
VELOX 1 25 Sep 14:58:28 14:58:49 10° 295° (WNW) 14:59:09 145.980
ITUPSAT 1 25 Sep 15:15:33 15:19:04 20° 95° (E) 15:22:35 437.325
PCSat 25 Sep 15:26:29 15:30:47 24° 306° (NW) 15:35:06 145.827
AO-7 25 Sep 15:28:35 15:36:56 83° 71° (ENE) 15:45:17 .
UKube-1 25 Sep 15:46:18 15:49:06 17° 292° (WNW) 15:51:55 .
BEESAT 25 Sep 15:49:47 15:54:27 49° 100° (E) 15:59:04 436.000
RS-15 25 Sep 15:56:04 16:06:58 47° 252° (WSW) 16:17:22 29.354- 29.394
MOZHAYETS 4 25 Sep 16:01:42 16:06:20 71° 101° (ESE) 16:10:55
ITAMSAT 1 25 Sep 16:02:03 16:07:09 63° 259° (WSW) 16:12:17 435.822/435.867
CUBESAT XI-V 25 Sep 16:34:22 16:38:25 30° 97° (E) 16:42:25 437.345
ITUPSAT 1 25 Sep 16:52:34 16:56:55 34° 289° (WNW) 17:01:14 437.325
DOVE 4 25 Sep 16:57:17 17:01:22 37° 74° (ENE) 17:05:16 437.250
LilacSat-2 25 Sep 17:10:22 17:11:54 12° 68° (ENE) 17:13:27 437.200
JUGNU 25 Sep 17:19:29 17:22:34 14° 167° (SSE) 17:25:40 437.505
KAITUO 1B 25 Sep 17:20:47 17:21:26 10° 67° (ENE) 17:22:05 145.475/437.950
AO-7 25 Sep 17:25:32 17:30:23 17° 267° (W) 17:35:16 .
BEESAT 25 Sep 17:29:07 17:31:44 15° 294° (WNW) 17:34:21 436.000
KKS-1 25 Sep 17:41:58 17:46:21 55° 101° (ESE) 17:50:42 437.445
XW-2D 25 Sep 17:53:03 17:56:40 41° 75° (ENE) 18:00:18 145.860 - 145.880
STARS 25 Sep 17:59:59 18:03:59 33° 98° (E) 18:07:58 437.465
XW-2F 25 Sep 18:03:27 18:07:09 51° 76° (ENE) 18:10:53 145.980 - 146.000
XW-2B 25 Sep 18:05:18 18:09:05 58° 76° (ENE) 18:12:52 145.730 - 145.750
CUTE-I 25 Sep 18:06:28 18:11:37 54° 73° (ENE) 18:16:47 437.470
CUBESAT XI-V 25 Sep 18:12:05 18:15:33 21° 291° (WNW) 18:19:01 437.345
HO-68 25 Sep 18:13:37 18:19:32 29° 64° (ENE) 18:25:27 435.675
NUDT-PHONESAT 25 Sep 18:18:55 18:22:36 62° 76° (ENE) 18:26:19 437.300
CUTE 1.7 + AOD 2 25 Sep 18:19:16 18:21:50 16° 68° (ENE) 18:24:23 437.475
ISS 25 Sep 18:23:42 18:24:47 11° 126° (SE) 18:25:52 437.550
XW-2C 25 Sep 18:26:45 18:30:34 67° 259° (W) 18:34:25 145.795 - 145.815
Tancredo 1 25 Sep 18:29:32 18:32:05 42° 320° (NW) 18:34:39 437.200
DOVE 4 25 Sep 18:36:41 18:39:07 14° 266° (W) 18:41:29 437.250
LilacSat-2 25 Sep 18:42:10 18:45:47 38° 262° (W) 18:49:25 437.200
KAITUO 1B 25 Sep 18:51:22 18:54:58 42° 261° (W) 18:58:36 145.475/437.950
nSIGHT-1 25 Sep 18:56:32 18:59:25 31° 131° (SE) 19:02:19 .
STRAND 1 25 Sep 19:02:01 19:03:53 12° 92° (E) 19:05:45 437.568
JUGNU 25 Sep 19:06:38 19:10:55 20° 177° (S) 19:15:10 437.505
BEESAT 3 25 Sep 19:06:55 19:10:53 81° 297° (WNW) 19:14:56 437.485
CUBEBUG 2 25 Sep 19:11:29 19:15:17 33° 72° (ENE) 19:19:13 437.445
UWE-3 25 Sep 19:14:05 19:17:15 20° 69° (ENE) 19:20:30 435.000/436.395/437.385
AO-85 25 Sep 19:19:44 19:23:18 34° 113° (ESE) 19:26:52 145.980
BEESAT 2 25 Sep 19:20:14 19:23:53 36° 113° (ESE) 19:27:36 435.950
SEEDS 25 Sep 19:20:26 19:24:32 50° 75° (ENE) 19:28:38 437.485
KKS-1 25 Sep 19:20:54 19:22:22 11° 295° (WNW) 19:23:50 437.445
XW-2A 25 Sep 19:29:43 19:32:54 38° 75° (ENE) 19:36:07 145.665 - 145.685
XW-2D 25 Sep 19:30:33 19:30:59 10° 268° (W) 19:31:26 145.860 - 145.880
AAUSAT CUBESAT 2 25 Sep 19:36:16 19:39:57 31° 72° (ENE) 19:43:38 437.432
STARS 25 Sep 19:37:02 19:40:02 18° 292° (WNW) 19:43:02 437.465
Oscar 11 25 Sep 19:48:41 19:51:23 16° 68° (ENE) 19:54:06 .
CUTE-I 25 Sep 19:48:56 19:51:54 15° 267° (W) 19:54:54 437.470
AO-73 25 Sep 19:51:25 19:54:59 25° 71° (ENE) 19:58:37 145.935
NO-84 25 Sep 19:51:58 19:54:47 38° 44° (NE) 19:57:28 435.350 FM
CUTE 1.7 + AOD 2 25 Sep 19:53:22 19:57:18 36° 262° (W) 20:01:17 437.475
ZACube-1 25 Sep 19:55:26 19:59:17 32° 72° (ENE) 20:03:14 437.345
ISS 25 Sep 19:57:43 20:00:54 49° 320° (NW) 20:04:05 437.550
HO-68 25 Sep 20:00:06 20:06:54 47° 260° (W) 20:13:44 435.675
nSIGHT-1 25 Sep 20:33:17 20:35:46 20° 326° (NW) 20:38:16 .
SRMSAT 25 Sep 20:36:45 20:40:14 16° 169° (S) 20:43:44 437.500
STRAND 1 25 Sep 20:38:19 20:43:24 64° 286° (WNW) 20:48:29 437.568
DELFI C3 25 Sep 20:44:10 20:46:01 13° 68° (ENE) 20:47:53 145.870
CUBEBUG 2 25 Sep 20:49:22 20:52:00 16° 267° (W) 20:54:40 437.445
UWE-3 25 Sep 20:49:48 20:53:29 28° 264° (W) 20:57:16 435.000/436.395/437.385
JUGNU 25 Sep 20:55:15 20:59:17 19° 187° (S) 21:03:16 437.505
BEESAT 2 25 Sep 20:59:07 21:01:44 17° 309° (NW) 21:04:22 435.950
SEEDS 25 Sep 20:59:39 21:00:25 10° 268° (W) 21:01:11 437.485
AO-85 25 Sep 21:01:25 21:03:46 15° 309° (NW) 21:06:09 145.980
AAUSAT CUBESAT 2 25 Sep 21:12:47 21:15:24 16° 266° (W) 21:18:02 437.432
Max Valier Satellite 25 Sep 21:15:26 21:18:20 22° 71° (ENE) 21:21:15 145.860
Oscar 11 25 Sep 21:23:12 21:27:11 35° 262° (W) 21:31:12 .
AO-73 25 Sep 21:27:43 21:31:07 22° 265° (W) 21:34:35 145.935
ZACube-1 25 Sep 21:32:41 21:35:36 18° 266° (W) 21:38:34 437.345
UNISAT 6 25 Sep 21:42:55 21:45:58 17° 94° (E) 21:49:01 437.425
FO-29 25 Sep 21:45:32 21:51:12 63° 102° (ESE) 21:57:35 435.910
TIGRISAT 25 Sep 22:05:04 22:09:05 28° 96° (E) 22:13:05 435.000
EO-88 25 Sep 22:09:34 22:13:13 88° 263° (W) 22:16:54 145.990 - 145.960
DELFI C3 25 Sep 22:16:46 22:20:24 36° 262° (W) 22:24:04 145.870
ESTCUBE 1 25 Sep 22:21:20 22:22:20 11° 65° (ENE) 22:23:18 437.505/2401.250
SRMSAT 25 Sep 22:24:29 22:28:44 20° 179° (S) 22:32:59 437.500
SO-50 25 Sep 22:28:15 22:32:39 43° 57° (ENE) 22:37:04 436.795
PCSat 25 Sep 22:34:59 22:38:19 16° 51° (NE) 22:41:38 145.827
YUBILEINY 25 Sep 22:42:18 22:50:04 34° 75° (ENE) 22:57:49 435.215
JUGNU 25 Sep 22:46:06 22:47:33 11° 196° (SSW) 22:49:01 437.505
Max Valier Satellite 25 Sep 22:49:28 22:52:03 18° 265° (W) 22:54:40 145.860
LO-87 25 Sep 22:57:56 23:01:11 37° 75° (ENE) 23:04:29 145.935 - 145.965
UNISAT 6 25 Sep 23:18:23 23:22:45 39° 287° (WNW) 23:27:06 437.425
PRISM 25 Sep 23:28:48 23:32:45 54° 285° (WNW) 23:36:43 437.425
FO-29 25 Sep 23:32:32 23:35:53 16° 294° (WNW) 23:39:26 435.910
POLYITAN 1 25 Sep 23:37:59 23:39:28 12° 93° (E) 23:40:58 437.675
EO-79 25 Sep 23:41:05 23:43:01 13° 93° (E) 23:44:58 145.935-145.965
TIGRISAT 25 Sep 23:41:49 23:45:35 24° 290° (WNW) 23:49:22 435.000
SPROUT 25 Sep 23:51:39 23:55:07 25° 71° (ENE) 23:58:36 437.525
ESTCUBE 1 25 Sep 23:54:03 23:58:32 62° 259° (W) 00:03:02 437.505/2401.250
QB50P2 25 Sep 23:54:28 23:57:46 21° 96° (E) 00:01:02 145.880/145.840
SO-50 26 Sep 00:09:49 00:12:45 17° 251° (WSW) 00:15:39 436.795
AIST 2D 26 Sep 00:10:22 00:13:53 78° 282° (WNW) 00:17:21 435.315
VELOX 1 26 Sep 00:12:01 00:15:55 32° 72° (ENE) 00:19:51 145.980
SRMSAT 26 Sep 00:13:31 00:17:13 17° 189° (S) 00:20:55 437.500
PCSat 26 Sep 00:16:47 00:22:09 65° 247° (WSW) 00:27:29 145.827
NANOSAT C BR1 26 Sep 00:26:33 00:30:36 41° 99° (E) 00:34:37 145.865
YUBILEINY 26 Sep 00:38:47 00:46:53 44° 272° (W) 00:55:00 435.215
M-CUBED/EXP-1 PRIME 26 Sep 00:51:38 00:52:55 12° 99° (E) 00:54:13 437.505
Tancredo 1 26 Sep 00:52:24 00:54:22 18° 35° (NE) 00:56:20 437.200
DUCHIFAT 1 26 Sep 00:53:18 00:57:35 79° 101° (ESE) 01:01:50 145.980
UKube-1 26 Sep 01:00:54 01:03:47 18° 68° (ENE) 01:06:40 .
POLYITAN 1 26 Sep 01:11:19 01:15:26 46° 286° (WNW) 01:19:32 437.675
DX 1 26 Sep 01:12:09 01:16:10 39° 73° (ENE) 01:20:12 434.975-435.025
EO-79 26 Sep 01:14:53 01:18:55 42° 286° (WNW) 01:22:57 145.935-145.965
BUGSAT 1 26 Sep 01:18:13 01:22:07 35° 99° (E) 01:26:00 437.445
50 SAT 26 Sep 01:22:37 01:25:53 71° 76° (ENE) 01:29:11 437.505
SPROUT 26 Sep 01:27:42 01:30:55 21° 264° (W) 01:34:10 437.525
nSIGHT-1 26 Sep 01:28:37 01:28:59 10° 26° (NNE) 01:29:23 .
Oscar 19 26 Sep 01:29:39 01:33:36 22° 95° (E) 01:37:32 437.125/150
QB50P2 26 Sep 01:29:54 01:33:27 26° 289° (WNW) 01:36:58 145.880/145.840
Gurwin Techsat 1B 26 Sep 01:36:25 01:39:52 17° 94° (E) 01:43:17 435.225
VELOX 1 26 Sep 01:49:25 01:52:23 18° 265° (W) 01:55:21 145.980
NANOSAT C BR1 26 Sep 02:03:44 02:05:53 14° 293° (WNW) 02:08:03 145.865
O/OREOS (USA 219) 26 Sep 02:04:03 02:08:32 78° 290° (WNW) 02:13:05 437.305
ITUPSAT 1 26 Sep 02:19:16 02:22:07 16° 66° (ENE) 02:24:58 437.325
M-CUBED/EXP-1 PRIME 26 Sep 02:24:42 02:27:24 24° 292° (WNW) 02:30:03 437.505
Tancredo 1 26 Sep 02:26:36 02:28:44 21° 230° (SW) 02:30:51 437.200
ISS 26 Sep 02:28:43 02:31:36 28° 37° (NE) 02:34:29 437.550
UKube-1 26 Sep 02:35:41 02:39:31 32° 262° (W) 02:43:23 .
DX 1 26 Sep 02:50:07 02:52:27 14° 266° (W) 02:54:48 434.975-435.025
BEESAT 26 Sep 02:52:20 02:56:40 37° 71° (ENE) 03:01:02 436.000
BUGSAT 1 26 Sep 02:54:34 02:57:07 16° 292° (WNW) 02:59:41 437.445
MOZHAYETS 4 26 Sep 02:59:29 03:03:49 42° 73° (ENE) 03:08:11
nSIGHT-1 26 Sep 03:02:33 03:05:48 75° 42° (NE) 03:09:02 .
Oscar 19 26 Sep 03:08:17 03:12:56 35° 289° (WNW) 03:17:33 437.125/150
Gurwin Techsat 1B 26 Sep 03:14:54 03:19:59 47° 288° (WNW) 03:25:03 435.225
BEESAT 3 26 Sep 03:28:06 03:30:46 17° 52° (NE) 03:33:23 437.485
CUBESAT XI-V 26 Sep 03:34:16 03:37:39 20° 69° (ENE) 03:41:03 437.345
AO-7 26 Sep 03:35:12 03:42:36 35° 99° (E) 03:49:57 .
AO-85 26 Sep 03:54:39 03:57:03 14° 50° (NE) 03:59:32 145.980
ITUPSAT 1 26 Sep 03:54:58 03:59:31 45° 260° (W) 04:04:07 437.325
RS-15 26 Sep 04:00:35 04:11:41 44° 107° (ESE) 04:22:55 29.354- 29.394
ISS 26 Sep 04:05:23 04:07:57 21° 231° (SW) 04:10:30 437.550
ITAMSAT 1 26 Sep 04:18:41 04:23:51 63° 102° (ESE) 04:29:01 435.822/435.867
BEESAT 26 Sep 04:31:13 04:34:29 18° 265° (W) 04:37:47 436.000
KKS-1 26 Sep 04:36:19 04:40:12 31° 71° (ENE) 04:44:05 437.445
MOZHAYETS 4 26 Sep 04:38:27 04:41:06 15° 267° (W) 04:43:46
STARS 26 Sep 04:53:30 04:56:32 19° 68° (ENE) 04:59:32 437.465
DOVE 4 26 Sep 05:00:37 05:02:46 13° 94° (E) 05:04:57 437.250
BEESAT 3 26 Sep 05:04:50 05:08:24 32° 247° (WSW) 05:11:52 437.485
CUBESAT XI-V 26 Sep 05:10:30 05:14:45 34° 262° (W) 05:19:00 437.345
BEESAT 2 26 Sep 05:18:28 05:22:31 90° 300° (WNW) 05:26:29 435.950
AO-7 26 Sep 05:27:38 05:35:22 45° 295° (WNW) 05:43:05 .
AO-85 26 Sep 05:33:13 05:37:45 63° 244° (WSW) 05:42:38 145.980
ITAMSAT 1 26 Sep 06:00:13 06:02:44 14° 296° (WNW) 06:05:15 435.822/435.867
XW-2C 26 Sep 06:04:12 06:06:34 16° 94° (E) 06:08:55 145.795 - 145.815
RS-15 26 Sep 06:12:02 06:23:53 53° 306° (NW) 06:35:53 29.354- 29.394
KKS-1 26 Sep 06:13:39 06:16:44 19° 265° (W) 06:19:51 437.445
STRAND 1 26 Sep 06:14:38 06:16:39 12° 64° (ENE) 06:18:40 437.568
LilacSat-2 26 Sep 06:19:14 06:22:32 27° 97° (E) 06:25:47 437.200
KAITUO 1B 26 Sep 06:26:36 06:29:33 22° 96° (E) 06:32:28 145.475/437.950
CUTE-I 26 Sep 06:27:44 06:32:22 29° 97° (E) 06:36:58 437.470
STARS 26 Sep 06:28:44 06:32:35 31° 262° (W) 06:36:28 437.465
DOVE 4 26 Sep 06:36:27 06:40:33 43° 286° (WNW) 06:44:51 437.250
XW-2D 26 Sep 07:03:02 07:06:49 74° 283° (WNW) 07:10:34 145.860 - 145.880
CUBEBUG 2 26 Sep 07:08:08 07:09:25 11° 91° (E) 07:10:42 437.445
SEEDS 26 Sep 07:10:34 07:11:33 11° 92° (E) 07:12:33 437.485
XW-2F 26 Sep 07:13:06 07:16:49 58° 284° (WNW) 07:20:29 145.980 - 146.000
XW-2B 26 Sep 07:15:34 07:19:16 51° 284° (WNW) 07:22:55 145.730 - 145.750
NUDT-PHONESAT 26 Sep 07:26:32 07:30:09 51° 284° (WNW) 07:33:44 437.300
HO-68 26 Sep 07:31:46 07:38:33 43° 100° (E) 07:45:19 435.675
XW-2C 26 Sep 07:37:33 07:40:43 26° 288° (WNW) 07:43:52 145.795 - 145.815
CUTE 1.7 + AOD 2 26 Sep 07:41:41 07:45:46 48° 99° (E) 07:49:49 437.475
STRAND 1 26 Sep 07:50:09 07:55:12 67° 258° (WSW) 08:00:17 437.568
LilacSat-2 26 Sep 07:54:13 07:56:32 16° 291° (WNW) 07:58:50 437.200
FO-29 26 Sep 07:57:11 08:00:10 15° 66° (ENE) 08:03:03 435.910
KAITUO 1B 26 Sep 08:00:46 08:03:21 18° 290° (WNW) 08:05:54 145.475/437.950
CUTE-I 26 Sep 08:07:45 08:12:16 29° 291° (WNW) 08:16:47 437.470
XW-2A 26 Sep 08:27:17 08:30:43 76° 101° (E) 08:34:05 145.665 - 145.685
RS-15 26 Sep 08:32:56 08:40:15 17° 335° (NNW) 08:47:32 29.354- 29.394
CUBEBUG 2 26 Sep 08:41:38 08:46:18 61° 285° (WNW) 08:50:58 437.445
UWE-3 26 Sep 08:42:08 08:46:49 78° 101° (ESE) 08:51:28 435.000/436.395/437.385
SEEDS 26 Sep 08:43:27 08:47:27 46° 285° (WNW) 08:51:24 437.485
AAUSAT CUBESAT 2 26 Sep 08:56:45 09:00:51 79° 284° (WNW) 09:04:56 437.432
TIGRISAT 26 Sep 09:01:14 09:03:38 15° 67° (ENE) 09:06:03 435.000
Oscar 11 26 Sep 09:13:47 09:18:02 53° 100° (E) 09:22:15 .
AO-73 26 Sep 09:18:11 09:22:46 88° 280° (W) 09:27:16 145.935
CUTE 1.7 + AOD 2 26 Sep 09:19:44 09:21:06 11° 293° (WNW) 09:22:29 437.475
HO-68 26 Sep 09:19:52 09:26:00 31° 295° (WNW) 09:32:07 435.675
ZACube-1 26 Sep 09:22:57 09:27:31 69° 284° (WNW) 09:32:01 437.345
